EST,Max TemperatureF,Mean TemperatureF,Min TemperatureF,Max Dew PointF,MeanDew PointF,Min DewpointF,Max Humidity, Mean Humidity, Min Humidity, Max Sea Level PressureIn, Mean Sea Level PressureIn, Min Sea Level PressureIn, Max VisibilityMiles, Mean VisibilityMiles, Min VisibilityMiles, Max Wind SpeedMPH, Mean Wind SpeedMPH, Max Gust SpeedMPH,PrecipitationIn, CloudCover, Events, WindDirDegrees
2014-1-1,48,34,19,30,25,19,100,81,49,30.36,30.26,30.10,10,10,9,8,1,,0.00,0,,218
2014-1-2,44,32,19,45,31,9,100,86,63,30.23,29.98,29.80,10,8,1,16,4,,0.00,8,,285
2014-1-3,26,20,14,12,8,5,93,62,43,30.46,30.38,30.24,10,10,10,16,7,,0.00,2,,12
2014-1-4,46,29,12,30,19,9,93,73,33,30.39,30.28,30.16,10,10,9,10,2,,0.00,2,,212
2014-1-5,55,42,30,50,37,27,94,79,58,30.16,29.95,29.68,10,10,3,21,3,29,0.00,7,,223
2014-1-6,30,18,3,30,4,-8,100,66,44,30.48,30.25,29.88,10,10,2,15,8,,0.00,4,,290
2014-1-7,17,8,0,7,-3,-11,92,62,45,30.61,30.52,30.48,10,10,8,13,4,,0.00,0,,338
2014-1-8,37,21,5,19,11,1,92,70,36,30.60,30.50,30.45,10,10,10,6,1,,0.00,0,,50
2014-1-9,51,38,24,34,24,18,86,64,35,30.52,30.43,30.36,10,10,9,10,1,,0.00,4,,346
2014-1-10,50,42,35,45,41,36,100,95,82,30.34,30.17,29.95,10,7,0,7,1,,0.00,8,,14
2014-1-11,60,51,39,59,44,30,100,77,36,29.97,29.78,29.67,10,7,0,15,5,,0.00,4,,243
2014-1-12,55,40,26,36,31,27,100,75,36,30.18,30.10,29.99,10,9,0,7,2,,0.00,0,,234
2014-1-13,48,38,28,45,37,27,100,92,62,30.13,30.01,29.86,10,9,2,7,1,,0.00,5,,238
2014-1-14,53,43,33,45,37,28,100,78,38,30.01,29.93,29.82,10,8,0,8,2,,0.00,3,,251
2014-1-15,42,33,24,34,23,14,81,61,34,30.11,30.04,29.95,10,10,10,14,4,,0.00,4,,326
2014-1-16,39,27,15,18,14,10,93,59,33,30.12,30.02,29.90,10,10,10,12,3,,0.00,1,,223
2014-1-17,42,34,26,25,17,7,64,49,36,30.12,29.97,29.90,10,10,10,15,7,22,0.00,4,,250
2014-1-18,39,28,17,10,9,7,73,44,28,30.20,30.07,29.93,10,10,10,12,5,,0.00,2,,228
2014-1-19,46,37,26,25,21,10,93,55,33,30.11,30.02,29.90,10,10,10,9,4,,0.00,3,,233
2014-1-20,59,42,24,28,25,21,86,55,29,30.03,29.95,29.85,10,10,10,9,3,,0.00,0,,213
2014-1-21,44,30,17,28,20,3,70,60,49,30.11,29.90,29.73,10,10,10,18,8,30,0.00,6,,292
2014-1-22,26,16,6,9,-1,-6,67,48,24,30.19,30.14,30.06,10,10,10,9,4,,0.00,3,,307
2014-1-23,24,17,10,12,3,-8,86,57,26,30.61,30.39,30.19,10,10,10,13,3,,0.00,0,,325
2014-1-24,26,14,1,1,-5,-11,72,45,19,30.68,30.51,30.22,10,10,10,8,3,,0.00,0,,257
2014-1-25,35,26,17,16,5,-6,59,38,28,30.18,29.95,29.85,10,10,10,14,7,28,0.00,4,,212
2014-1-26,51,32,14,27,20,10,86,58,35,29.99,29.91,29.83,10,10,10,14,3,,0.00,0,,210
2014-1-27,48,34,19,36,15,-6,76,44,25,30.25,30.03,29.82,10,10,8,17,6,,0.00,3,,318
2014-1-28,19,14,10,12,5,-6,86,64,33,30.32,30.28,30.24,10,7,1,10,5,,0.00,6,,19
2014-1-29,21,10,-2,1,-3,-8,92,54,30,30.42,30.37,30.31,10,10,10,9,2,,0.00,0,,21
2014-1-30,37,18,-2,16,4,-8,92,62,30,30.36,30.26,30.12,10,10,10,7,1,,0.00,0,,218
2014-1-31,51,32,12,21,14,10,93,60,19,30.26,30.18,30.14,10,10,9,8,1,,0.00,0,,217